EW9274 Weather Reports


time (UTC)temp
C
wind
direction
speed
KPH
gust
KPH
rain 1hr
cm
rain 24hr
cm
rain mn
cm
humidity
%
barometer
mb
20260503232506 20 275 12.9 30.6 0.00 0.00 0.00 39 1004.3
20260503232002 20 198 14.5 29.0 0.00 0.00 0.00 39 1004.3
20260503231516 20 225 11.3 30.6 0.00 0.00 0.00 38 1004.3
20260503231006 20 329 12.9 30.6 0.00 0.00 0.00 38 1004.3
20260503230506 20 235 14.5 38.6 0.00 0.00 0.00 38 1004.3
20260503230012 20 253 11.3 38.6 0.00 0.00 0.00 38 1004.5
20260503225505 20 226 12.9 35.4 0.00 0.00 0.00 38 1004.4
20260503225003 20 236 3.2 35.4 0.00 0.00 0.00 39 1004.4
20260503224517 20 254 17.7 33.8 0.00 0.00 0.00 39 1004.5
20260503224002 20 259 17.7 33.8 0.00 0.00 0.00 39 1004.5
20260503223502 20 231 14.5 37.0 0.00 0.00 0.00 39 1004.6
20260503223016 20 360 19.3 37.0 0.00 0.00 0.00 39 1004.6
20260503222503 20 257 12.9 30.6 0.00 0.00 0.00 39 1004.6
20260503222004 20 211 12.9 32.2 0.00 0.00 0.00 39 1004.7
20260503221516 20 223 9.7 32.2 0.00 0.00 0.00 39 1004.8
20260503221010 20 306 11.3 27.4 0.00 0.00 0.00 39 1004.9
20260503220503 20 277 12.9 29.0 0.00 0.00 0.00 39 1004.9
20260503220037 20 76 6.4 29.0 0.00 0.00 0.00 40 1004.9
20260503215507 19 215 12.9 30.6 0.00 0.00 0.00 39 1004.9
20260503215002 19 36 11.3 40.2 0.00 0.00 0.00 39 1005.0
20260503214519 19 252 20.9 40.2 0.00 0.00 0.00 39 1004.9
20260503214003 19 218 17.7 40.2 0.00 0.00 0.00 38 1004.8
20260503213505 20 245 9.7 40.2 0.00 0.00 0.00 40 1005.0
20260503213024 19 259 19.3 40.2 0.00 0.00 0.00 38 1005.1
20260503212502 20 210 14.5 30.6 0.00 0.00 0.00 39 1005.1
20260503212006 19 267 16.1 35.4 0.00 0.00 0.00 39 1005.1
20260503211521 19 273 12.9 45.1 0.00 0.00 0.00 39 1005.0
20260503211003 19 234 16.1 45.1 0.00 0.00 0.00 39 1005.0
20260503210505 20 252 20.9 41.8 0.00 0.00 0.00 39 1005.1
20260503210020 19 192 8.0 41.8 0.00 0.00 0.00 40 1005.1
20260503205503 19 305 20.9 41.8 0.00 0.00 0.00 39 1005.3
20260503205008 19 271 17.7 35.4 0.00 0.00 0.00 38 1005.4
20260503204521 20 232 11.3 29.0 0.00 0.00 0.00 40 1005.5
20260503204003 19 245 8.0 29.0 0.00 0.00 0.00 43 1005.6
20260503203505 18 237 14.5 40.2 0.00 0.00 0.00 43 1005.7
20260503203029 18 193 12.9 40.2 0.00 0.00 0.00 43 1005.6
20260503202503 18 143 19.3 33.8 0.00 0.00 0.00 44 1005.8
20260503202009 18 302 8.0 33.8 0.00 0.00 0.00 45 1006.0
20260503201521 18 253 12.9 38.6 0.00 0.00 0.00 46 1006.1
20260503201011 17 166 20.9 40.2 0.00 0.00 0.00 45 1006.2
20260503200508 17 36 19.3 40.2 0.00 0.00 0.00 45 1006.6
20260503200024 17 233 12.9 43.5 0.00 0.00 0.00 44 1006.5
20260503195502 17 156 12.9 43.5 0.00 0.00 0.00 45 1006.7
20260503195008 17 180 16.1 46.7 0.00 0.00 0.00 44 1006.6
20260503194506 17 157 16.1 46.7 0.00 0.00 0.00 43 1006.7
20260503194005 18 247 19.3 45.1 0.00 0.00 0.00 42 1006.7
20260503193511 17 202 17.7 32.2 0.00 0.00 0.00 42 1006.9
20260503193008 17 292 12.9 45.1 0.00 0.00 0.00 41 1006.9
20260503192505 18 119 17.7 48.3 0.00 0.00 0.00 39 1007.0
20260503192009 18 244 22.5 48.3 0.00 0.00 0.00 39 1006.8
20260503191513 18 72 17.7 41.8 0.00 0.00 0.00 40 1006.8
20260503191009 18 218 19.3 40.2 0.00 0.00 0.00 40 1006.8
20260503190509 18 222 14.5 41.8 0.00 0.00 0.00 39 1006.9
20260503190005 18 203 16.1 41.8 0.00 0.00 0.00 39 1006.9
20260503185503 18 188 19.3 40.2 0.00 0.00 0.00 39 1007.0
20260503185006 18 255 19.3 35.4 0.00 0.00 0.00 39 1007.0
20260503184508 18 211 16.1 57.9 0.00 0.00 0.00 40 1007.1
20260503184007 18 117 11.3 57.9 0.00 0.00 0.00 40 1007.2
20260503183513 18 211 20.9 38.6 0.00 0.00 0.00 40 1007.1
20260503183010 18 209 12.9 35.4 0.00 0.00 0.00 41 1007.2
20260503182505 18 86 9.7 35.4 0.00 0.00 0.00 41 1007.3
20260503182010 17 227 12.9 29.0 0.00 0.00 0.00 43 1007.4
20260503181509 17 220 16.1 27.4 0.00 0.00 0.00 44 1007.5
20260503181006 17 234 12.9 25.7 0.00 0.00 0.00 45 1007.6
20260503180509 17 209 9.7 32.2 0.00 0.00 0.00 47 1007.6
20260503180026 16 164 17.7 32.2 0.00 0.00 0.00 45 1007.8
20260503175506 16 225 14.5 30.6 0.00 0.00 0.00 47 1007.8
20260503175013 16 225 9.7 35.4 0.00 0.00 0.00 47 1007.8
20260503174526 16 236 16.1 40.2 0.00 0.00 0.00 46 1007.9
20260503174008 16 196 9.7 40.2 0.00 0.00 0.00 48 1008.2
20260503173507 16 238 17.7 38.6 0.00 0.00 0.00 48 1008.3
20260503173017 15 99 17.7 38.6 0.00 0.00 0.00 48 1008.4
20260503172506 15 202 16.1 35.4 0.00 0.00 0.00 48 1008.4
20260503172011 16 198 6.4 22.5 0.00 0.00 0.00 48 1008.5
20260503171516 15 204 11.3 29.0 0.00 0.00 0.00 51 1008.8
20260503171010 14 193 14.5 29.0 0.00 0.00 0.00 52 1008.7
20260503170509 13 217 11.3 29.0 0.00 0.00 0.00 54 1008.8
20260503151004 13 274 6.4 41.8 0.00 0.00 0.00 52 1010.2
20260503150505 13 231 19.3 41.8 0.00 0.00 0.00 50 1010.2
20260503131010 11 155 8.0 22.5 0.00 0.00 0.00 51 1011.2
20260503130503 11 237 11.3 22.5 0.00 0.00 0.00 51 1011.2
20260503110503 9 238 8.0 14.5 0.00 0.00 0.00 50 1011.2
20260503090505 8 253 4.8 14.5 0.00 0.00 0.00 52 1011.8
20260503081535 8 207 4.8 11.3 0.00 0.00 0.00 52 1012.2
20260503081006 8 206 4.8 11.3 0.00 0.00 0.00 52 1012.2
20260503080511 8 182 4.8 9.7 0.00 0.00 0.00 53 1012.3
20260503072507 8 224 4.8 9.7 0.00 0.00 0.00 52 1012.5
20260503072002 7 265 4.8 9.7 0.00 0.00 0.00 53 1012.7
20260503071514 7 230 3.2 9.7 0.00 0.00 0.00 53 1012.7
20260503071009 7 203 4.8 11.3 0.00 0.00 0.00 53 1012.8
20260503070502 7 257 4.8 11.3 0.00 0.00 0.00 53 1012.8
20260503055002 7 197 3.2 6.4 0.00 0.00 0.00 54 1013.4
20260503054523 7 206 1.6 6.4 0.00 0.00 0.00 54 1013.4
20260503054006 7 190 1.6 6.4 0.00 0.00 0.00 54 1013.4
20260503053506 7 196 1.6 6.4 0.00 0.00 0.00 54 1013.4
20260503053020 7 187 3.2 6.4 0.00 0.00 0.00 55 1013.5
20260503052501 7 200 1.6 6.4 0.00 0.00 0.00 55 1013.5
20260503052006 7 240 1.6 8.0 0.00 0.00 0.00 55 1013.6
20260503051524 7 207 1.6 9.7 0.00 0.00 0.00 55 1013.6
20260503051009 7 161 3.2 8.0 0.00 0.00 0.00 55 1013.5
20260503050506 7 189 1.6 4.8 0.00 0.00 0.00 56 1013.6
20260503050035 7 225 1.6 4.8 0.00 0.00 0.00 56 1013.6
20260503045504 7 198 1.6 4.8 0.00 0.00 0.00 56 1013.6
20260503045010 7 196 1.6 3.2 0.00 0.00 0.00 56 1013.6
20260503044524 7 205 1.6 4.8 0.00 0.00 0.00 56 1013.7
20260503044002 7 198 1.6 4.8 0.00 0.00 0.00 56 1013.7
20260503043506 7 215 1.6 4.8 0.00 0.00 0.00 56 1013.8
20260503043027 7 204 1.6 3.2 0.00 0.00 0.00 56 1013.8
20260503042502 7 207 1.6 3.2 0.00 0.00 0.00 58 1013.8
20260503042010 7 206 0.0 3.2 0.00 0.00 0.00 58 1013.8
20260503041528 7 206 0.0 3.2 0.00 0.00 0.00 58 1013.9
20260503041003 7 206 0.0 3.2 0.00 0.00 0.00 58 1013.9
20260503040506 7 206 1.6 3.2 0.00 0.00 0.00 58 1013.9
20260503040035 7 204 1.6 3.2 0.00 0.00 0.00 57 1014.0
20260503035503 7 194 1.6 3.2 0.00 0.00 0.00 57 1014.1
20260503035006 7 213 0.0 3.2 0.00 0.00 0.00 57 1014.1
20260503034535 7 205 1.6 4.8 0.00 0.00 0.00 57 1014.1
20260503034005 7 195 3.2 4.8 0.00 0.00 0.00 57 1014.2
20260503033508 7 211 0.0 3.2 0.00 0.00 0.00 57 1014.2
20260503033008 7 202 1.6 3.2 0.00 0.00 0.00 58 1014.2
20260503032510 7 227 1.6 3.2 0.00 0.00 0.00 58 1014.2
20260503032017 7 221 1.6 4.8 0.00 0.00 0.00 58 1014.2
20260503031508 7 250 1.6 3.2 0.00 0.00 0.00 58 1014.2
20260503031011 7 226 1.6 3.2 0.00 0.00 0.00 59 1014.2
20260503030508 7 227 0.0 3.2 0.00 0.00 0.00 58 1014.3
20260503030009 7 227 1.6 3.2 0.00 0.00 0.00 58 1014.3
20260503025505 7 249 0.0 3.2 0.00 0.00 0.00 58 1014.4
20260503025005 7 249 1.6 3.2 0.00 0.00 0.00 58 1014.5
20260503024511 8 249 1.6 3.2 0.00 0.00 0.00 57 1014.4
20260503024007 8 249 1.6 3.2 0.00 0.00 0.00 57 1014.4
20260503023508 8 249 0.0 3.2 0.00 0.00 0.00 56 1014.4
20260503023011 8 249 1.6 3.2 0.00 0.00 0.00 55 1014.4
20260503022509 8 249 1.6 3.2 0.00 0.00 0.00 55 1014.4
20260503022011 8 249 1.6 3.2 0.00 0.00 0.00 55 1014.4
20260503021512 8 248 1.6 3.2 0.00 0.00 0.00 54 1014.4
20260503021006 8 165 0.0 3.2 0.00 0.00 0.00 53 1014.4
20260503020509 9 165 0.0 3.2 0.00 0.00 0.00 52 1014.4
20260503020016 9 165 0.0 3.2 0.00 0.00 0.00 51 1014.3
20260503015505 9 165 0.0 6.4 0.00 0.00 0.00 50 1014.3
20260503015010 10 175 1.6 6.4 0.00 0.00 0.00 49 1014.3
20260503014526 10 185 1.6 3.2 0.00 0.00 0.00 45 1014.2
20260503014005 10 227 0.0 3.2 0.00 0.00 0.00 45 1014.1
20260503013513 10 227 1.6 3.2 0.00 0.00 0.00 44 1014.1
20260503013024 10 227 0.0 3.2 0.00 0.00 0.00 43 1014.0
20260503012507 11 227 0.0 3.2 0.00 0.00 0.00 43 1014.1
20260503012013 11 227 0.0 3.2 0.00 0.00 0.00 42 1014.0
20260503011518 11 227 0.0 3.2 0.00 0.00 0.00 41 1014.0
20260503011007 11 227 0.0 4.8 0.00 0.00 0.00 40 1014.1
20260503010513 11 226 1.6 6.4 0.00 0.00 0.00 40 1014.1
20260503010020 11 234 1.6 8.0 0.00 0.00 0.00 39 1014.2
20260503005510 11 220 3.2 8.0 0.00 0.00 0.00 38 1014.2
20260503005009 12 216 1.6 9.7 0.00 0.00 0.00 38 1014.3
20260503004516 12 259 1.6 8.0 0.00 0.00 0.00 38 1014.2
20260503004007 12 248 1.6 8.0 0.00 0.00 0.00 37 1014.1
20260503003508 12 231 3.2 12.9 0.00 0.00 0.00 37 1014.1
20260503003019 12 243 4.8 12.9 0.00 0.00 0.00 37 1014.1
20260503002510 12 221 4.8 14.5 0.00 0.00 0.00 36 1014.2
20260503002014 12 215 3.2 16.1 0.00 0.00 0.00 36 1014.2
20260503001520 13 190 4.8 22.5 0.00 0.00 0.00 35 1014.3
20260503001011 13 320 8.0 22.5 0.00 0.00 0.00 34 1014.2
20260503000511 13 217 3.2 22.5 0.00 0.00 0.00 35 1014.3
20260503000020 13 262 8.0 22.5 0.00 0.00 0.00 34 1014.4
20260502235508 13 238 3.2 14.5 0.00 0.00 0.00 34 1014.4
20260502235004 13 229 8.0 17.7 0.00 0.00 0.00 34 1014.4
20260502234533 13 232 8.0 17.7 0.00 0.00 0.00 34 1014.4
20260502234009 13 283 6.4 16.1 0.00 0.00 0.00 34 1014.5
20260502233513 13 255 9.7 17.7 0.00 0.00 0.00 33 1014.5
20260502233024 13 206 8.0 17.7 0.00 0.00 0.00 32 1014.6